Michigan — WDF5344 — position and weather

sailwx.info

Track history (hours):
 
Tides and Currents Weather Stations Pressure Air Temp Water Temp Dewpoint Dewpoint Depression Visibility Wind Speed Wind Dir Waves Ship Positions

Michigan

Owner: GATX Third Aircraft Corporation, San Francisco, CA. More information available from US FCC via Universal Licensing System and Coast Guard Vessel Documentation Center.

Last reported at 2018-Jan-20 12:39 UTC. Time now 2018-Jan-20 15:28 UTC.
Position N 45°48' W 085°58'.

Length 135 m; draft 6.2 m.

Type: Tanker. MMSI: 303583000.

Date/timePositionNaut miles runAvg speedWind from/ knotsBaromVisibWave heightAir tempDewpointWater temp
2018-Jan-20 12:39N 45°48' W 085°58'1 8.8
2018-Jan-20 12:30N 45°49' W 085°56'4 8.6
2018-Jan-20 12:00N 45°50' W 085°50'4 8.5
2018-Jan-20 11:30N 45°51' W 085°45'4 8.4
2018-Jan-20 11:00N 45°52' W 085°39'4 8.3
2018-Jan-20 10:30N 45°53' W 085°33'4 7.8
2018-Jan-20 10:00N 45°52' W 085°28'1 1.9
2018-Jan-20 09:25N 45°52' W 085°26'0 0.0
2018-Jan-20 08:55N 45°52' W 085°26'0 0.0
2018-Jan-20 08:25N 45°52' W 085°26'0 0.0
2018-Jan-20 07:55N 45°52' W 085°26'0 0.0
2018-Jan-20 07:19N 45°52' W 085°26'0 0.0
2018-Jan-20 06:55N 45°52' W 085°26'0 0.0
2018-Jan-20 06:25N 45°52' W 085°26'0 0.0
2018-Jan-20 04:37N 45°52' W 085°26'0 0.0
2018-Jan-20 04:25N 45°52' W 085°26'410.1
2018-Jan-20 04:00N 45°48' W 085°24'455.4 230 / 211001.610.8
2018-Jan-20 03:55N 45°52' W 085°26'0 0.0
2018-Jan-20 03:25N 45°52' W 085°26'0 0.0
2018-Jan-20 02:55N 45°52' W 085°26'0 0.0
2018-Jan-20 02:25N 45°52' W 085°26'0 0.0
2018-Jan-20 01:55N 45°52' W 085°26'0 0.0
2018-Jan-20 01:25N 45°52' W 085°26'0 0.0
2018-Jan-20 00:55N 45°52' W 085°26'0 0.0
2018-Jan-20 00:25N 45°52' W 085°26'410.1
2018-Jan-20 00:00N 45°48' W 085°24'455.8 220 / 241002.010.8
2018-Jan-19 23:55N 45°52' W 085°26'0 0.0
2018-Jan-19 23:25N 45°52' W 085°26'0 1.0
2018-Jan-19 23:00N 45°52' W 085°27'4 8.0
2018-Jan-19 22:30N 45°53' W 085°32'4 8.5
2018-Jan-19 22:00N 45°53' W 085°38'5 8.4
2018-Jan-19 21:26N 45°53' W 085°45'4 8.4
2018-Jan-19 20:57N 45°51' W 085°50'4 8.0
2018-Jan-19 20:30N 45°49' W 085°55'3 6.6
2018-Jan-19 20:00N 45°50' W 085°50'4 7.4
2018-Jan-19 19:30N 45°51' W 085°45'4 7.6
2018-Jan-19 19:00N 45°52' W 085°40'4 8.1
2018-Jan-19 18:30N 45°53' W 085°34'4 8.4
2018-Jan-19 18:00N 45°53' W 085°28'3 6.5
2018-Jan-19 17:30N 45°52' W 085°24'2 4.7
2018-Jan-19 17:00N 45°52' W 085°20'3 5.2
2018-Jan-19 16:31N 45°52' W 085°17'3 5.7
2018-Jan-19 16:00N 45°51' W 085°12'1 2.2
2018-Jan-19 15:30N 45°52' W 085°11'1 1.4
2018-Jan-19 15:00N 45°52' W 085°10'0 0.1
2018-Jan-19 14:30N 45°52' W 085°10'0 0.0
2018-Jan-19 14:00N 45°52' W 085°10'0 0.0
2018-Jan-19 13:31N 45°52' W 085°10'0 0.0
2018-Jan-19 13:00N 45°52' W 085°10'0 0.0
2018-Jan-19 12:30N 45°52' W 085°10'0 0.0
2018-Jan-19 12:00N 45°52' W 085°10'5390.4
2018-Jan-19 12:00N 45°48' W 085°06'5 9.6 230 / 61009.1
2018-Jan-19 11:30N 45°52' W 085°10'0 0.0
2018-Jan-19 11:00N 45°52' W 085°10'0 0.0
2018-Jan-19 10:30N 45°52' W 085°10'0 0.0
2018-Jan-19 10:01N 45°52' W 085°10'0 0.0
2018-Jan-19 09:30N 45°52' W 085°10'0 0.0
2018-Jan-19 09:00N 45°52' W 085°10'0 0.0
2018-Jan-19 08:30N 45°52' W 085°10'0 0.0
2018-Jan-19 08:00N 45°52' W 085°10'0 0.0
2018-Jan-19 07:30N 45°52' W 085°10'0 0.0
2018-Jan-19 07:00N 45°52' W 085°10'0 0.0
2018-Jan-19 06:30N 45°52' W 085°10'0 0.0
2018-Jan-19 06:00N 45°52' W 085°10'0 0.0
2018-Jan-19 05:30N 45°52' W 085°10'0 0.0
2018-Jan-19 05:00N 45°52' W 085°10'0 0.0
2018-Jan-19 04:30N 45°52' W 085°10'0 0.0
2018-Jan-19 04:00N 45°52' W 085°10'0 0.0
2018-Jan-19 03:30N 45°52' W 085°10'0 0.0
2018-Jan-19 03:00N 45°52' W 085°10'0 0.0
2018-Jan-19 02:30N 45°52' W 085°10'0 0.0
2018-Jan-19 02:00N 45°52' W 085°10'0 0.0
2018-Jan-19 01:30N 45°52' W 085°10'0 0.0
2018-Jan-19 01:00N 45°52' W 085°10'0 0.1
2018-Jan-19 00:31N 45°52' W 085°10'0 0.1
2018-Jan-19 00:00N 45°52' W 085°10'0 0.0
2018-Jan-18 23:30N 45°52' W 085°10'0 0.1
2018-Jan-18 23:00N 45°52' W 085°10'0 0.2
2018-Jan-18 22:31N 45°52' W 085°10'1 1.2
2018-Jan-18 22:00N 45°52' W 085°09'0 0.1
2018-Jan-18 21:30N 45°52' W 085°09'0 0.1
2018-Jan-18 21:01N 45°52' W 085°09'0 0.0
2018-Jan-18 20:30N 45°52' W 085°09'0 0.1
2018-Jan-18 20:00N 45°52' W 085°09'0 0.1
2018-Jan-18 19:30N 45°52' W 085°09'0 0.0
2018-Jan-18 19:00N 45°52' W 085°09'0 0.0
2018-Jan-18 18:30N 45°52' W 085°09'0 1.0
2018-Jan-18 18:00N 45°52' W 085°09'0 0.1
2018-Jan-18 17:31N 45°52' W 085°09'1 1.6
2018-Jan-18 17:00N 45°52' W 085°07'0 1.0
2018-Jan-18 16:31N 45°51' W 085°07'0 0.0
2018-Jan-18 16:00N 45°51' W 085°07'2 3.6
2018-Jan-18 15:30N 45°51' W 085°04'2 3.1
2018-Jan-18 15:00N 45°51' W 085°02'2 3.7
2018-Jan-18 14:31N 45°51' W 084°59'3 6.4
2018-Jan-18 14:00N 45°50' W 084°55'3 6.0
2018-Jan-18 13:31N 45°50' W 084°51'3 5.0
2018-Jan-18 13:00N 45°49' W 084°47'4 8.3
2018-Jan-18 12:30N 45°49' W 084°41'3 5.1
2018-Jan-18 12:00N 45°50' W 084°38'3 5.6
2018-Jan-18 11:30N 45°51' W 084°34'3 5.2
2018-Jan-18 11:00N 45°51' W 084°30'3 5.0
2018-Jan-18 10:28N 45°51' W 084°26'2 4.6
2018-Jan-18 10:00N 45°50' W 084°24'2 4.9
2018-Jan-18 09:30N 45°48' W 084°21'2 4.9
2018-Jan-18 09:00N 45°46' W 084°19'2 4.9
2018-Jan-18 08:30N 45°44' W 084°18'19 4.6
2018-Jan-18 04:30N 45°33' W 083°56'3 6.0
2018-Jan-18 04:00N 45°31' W 083°52'4 8.6
2018-Jan-18 03:30N 45°30' W 083°47'4 8.5
2018-Jan-18 03:00N 45°28' W 083°41'4 8.5
2018-Jan-18 02:30N 45°26' W 083°36'4 8.4
2018-Jan-18 02:00N 45°24' W 083°31'030.0
2018-Jan-18 02:00N 45°24' W 083°30'2211.0 250 / 221014.210.8
2018-Jan-18 00:00N 45°06' W 083°12'78 7.8 230 / 301016.510.8
2018-Jan-17 14:00N 43°54' W 082°30'24 8.1 230 / 201028.4
2018-Jan-17 11:00N 43°30' W 082°24'54 5.4 260 / 121029.410.8
2018-Jan-17 01:00N 42°36' W 082°30'   180 / 81029.4 2.2
2018-Jan-14 14:00N 42°30' W 081°00'   290 / 81032.810.8
2018-Jan-11 14:00N 42°42' W 082°30'13 0.5 190 / 141015.510.8
2018-Jan-10 13:00N 42°54' W 082°24'   180 / 101021.610.8 -3.8
Track history (hours):
 
Tides and Currents Weather Stations Pressure Air Temp Water Temp Dewpoint Dewpoint Depression Visibility Wind Speed Wind Dir Waves Ship Positions

Michigan

Owner: GATX Third Aircraft Corporation, San Francisco, CA. More information available from US FCC via Universal Licensing System and Coast Guard Vessel Documentation Center.

Last reported at 2018-Jan-20 12:39 UTC. Time now 2018-Jan-20 15:28 UTC.
Position N 45°48' W 085°58'.

Length 135 m; draft 6.2 m.

Type: Tanker. MMSI: 303583000.

Date/timePositionNaut miles runAvg speedWind from/ knotsBaromVisibWave heightAir tempDewpointWater temp
2018-Jan-20 12:39N 45°48' W 085°58'1 8.8
2018-Jan-20 12:30N 45°49' W 085°56'4 8.6
2018-Jan-20 12:00N 45°50' W 085°50'4 8.5
2018-Jan-20 11:30N 45°51' W 085°45'4 8.4
2018-Jan-20 11:00N 45°52' W 085°39'4 8.3
2018-Jan-20 10:30N 45°53' W 085°33'4 7.8
2018-Jan-20 10:00N 45°52' W 085°28'1 1.9
2018-Jan-20 09:25N 45°52' W 085°26'0 0.0
2018-Jan-20 08:55N 45°52' W 085°26'0 0.0
2018-Jan-20 08:25N 45°52' W 085°26'0 0.0
2018-Jan-20 07:55N 45°52' W 085°26'0 0.0
2018-Jan-20 07:19N 45°52' W 085°26'0 0.0
2018-Jan-20 06:55N 45°52' W 085°26'0 0.0
2018-Jan-20 06:25N 45°52' W 085°26'0 0.0
2018-Jan-20 04:37N 45°52' W 085°26'0 0.0
2018-Jan-20 04:25N 45°52' W 085°26'410.1
2018-Jan-20 04:00N 45°48' W 085°24'455.4 230 / 211001.610.8
2018-Jan-20 03:55N 45°52' W 085°26'0 0.0
2018-Jan-20 03:25N 45°52' W 085°26'0 0.0
2018-Jan-20 02:55N 45°52' W 085°26'0 0.0
2018-Jan-20 02:25N 45°52' W 085°26'0 0.0
2018-Jan-20 01:55N 45°52' W 085°26'0 0.0
2018-Jan-20 01:25N 45°52' W 085°26'0 0.0
2018-Jan-20 00:55N 45°52' W 085°26'0 0.0
2018-Jan-20 00:25N 45°52' W 085°26'410.1
2018-Jan-20 00:00N 45°48' W 085°24'455.8 220 / 241002.010.8
2018-Jan-19 23:55N 45°52' W 085°26'0 0.0
2018-Jan-19 23:25N 45°52' W 085°26'0 1.0
2018-Jan-19 23:00N 45°52' W 085°27'4 8.0
2018-Jan-19 22:30N 45°53' W 085°32'4 8.5
2018-Jan-19 22:00N 45°53' W 085°38'5 8.4
2018-Jan-19 21:26N 45°53' W 085°45'4 8.4
2018-Jan-19 20:57N 45°51' W 085°50'4 8.0
2018-Jan-19 20:30N 45°49' W 085°55'3 6.6
2018-Jan-19 20:00N 45°50' W 085°50'4 7.4
2018-Jan-19 19:30N 45°51' W 085°45'4 7.6
2018-Jan-19 19:00N 45°52' W 085°40'4 8.1
2018-Jan-19 18:30N 45°53' W 085°34'4 8.4
2018-Jan-19 18:00N 45°53' W 085°28'3 6.5
2018-Jan-19 17:30N 45°52' W 085°24'2 4.7
2018-Jan-19 17:00N 45°52' W 085°20'3 5.2
2018-Jan-19 16:31N 45°52' W 085°17'3 5.7
2018-Jan-19 16:00N 45°51' W 085°12'1 2.2
2018-Jan-19 15:30N 45°52' W 085°11'1 1.4
2018-Jan-19 15:00N 45°52' W 085°10'0 0.1
2018-Jan-19 14:30N 45°52' W 085°10'0 0.0
2018-Jan-19 14:00N 45°52' W 085°10'0 0.0
2018-Jan-19 13:31N 45°52' W 085°10'0 0.0
2018-Jan-19 13:00N 45°52' W 085°10'0 0.0
2018-Jan-19 12:30N 45°52' W 085°10'0 0.0
2018-Jan-19 12:00N 45°52' W 085°10'5390.4
2018-Jan-19 12:00N 45°48' W 085°06'5 9.6 230 / 61009.1
2018-Jan-19 11:30N 45°52' W 085°10'0 0.0
2018-Jan-19 11:00N 45°52' W 085°10'0 0.0
2018-Jan-19 10:30N 45°52' W 085°10'0 0.0
2018-Jan-19 10:01N 45°52' W 085°10'0 0.0
2018-Jan-19 09:30N 45°52' W 085°10'0 0.0
2018-Jan-19 09:00N 45°52' W 085°10'0 0.0
2018-Jan-19 08:30N 45°52' W 085°10'0 0.0
2018-Jan-19 08:00N 45°52' W 085°10'0 0.0
2018-Jan-19 07:30N 45°52' W 085°10'0 0.0
2018-Jan-19 07:00N 45°52' W 085°10'0 0.0
2018-Jan-19 06:30N 45°52' W 085°10'0 0.0
2018-Jan-19 06:00N 45°52' W 085°10'0 0.0
2018-Jan-19 05:30N 45°52' W 085°10'0 0.0
2018-Jan-19 05:00N 45°52' W 085°10'0 0.0
2018-Jan-19 04:30N 45°52' W 085°10'0 0.0
2018-Jan-19 04:00N 45°52' W 085°10'0 0.0
2018-Jan-19 03:30N 45°52' W 085°10'0 0.0
2018-Jan-19 03:00N 45°52' W 085°10'0 0.0
2018-Jan-19 02:30N 45°52' W 085°10'0 0.0
2018-Jan-19 02:00N 45°52' W 085°10'0 0.0
2018-Jan-19 01:30N 45°52' W 085°10'0 0.0
2018-Jan-19 01:00N 45°52' W 085°10'0 0.1
2018-Jan-19 00:31N 45°52' W 085°10'0 0.1
2018-Jan-19 00:00N 45°52' W 085°10'0 0.0
2018-Jan-18 23:30N 45°52' W 085°10'0 0.1
2018-Jan-18 23:00N 45°52' W 085°10'0 0.2
2018-Jan-18 22:31N 45°52' W 085°10'1 1.2
2018-Jan-18 22:00N 45°52' W 085°09'0 0.1
2018-Jan-18 21:30N 45°52' W 085°09'0 0.1
2018-Jan-18 21:01N 45°52' W 085°09'0 0.0
2018-Jan-18 20:30N 45°52' W 085°09'0 0.1
2018-Jan-18 20:00N 45°52' W 085°09'0 0.1
2018-Jan-18 19:30N 45°52' W 085°09'0 0.0
2018-Jan-18 19:00N 45°52' W 085°09'0 0.0
2018-Jan-18 18:30N 45°52' W 085°09'0 1.0
2018-Jan-18 18:00N 45°52' W 085°09'0 0.1
2018-Jan-18 17:31N 45°52' W 085°09'1 1.6
2018-Jan-18 17:00N 45°52' W 085°07'0 1.0
2018-Jan-18 16:31N 45°51' W 085°07'0 0.0
2018-Jan-18 16:00N 45°51' W 085°07'2 3.6
2018-Jan-18 15:30N 45°51' W 085°04'2 3.1
2018-Jan-18 15:00N 45°51' W 085°02'2 3.7
2018-Jan-18 14:31N 45°51' W 084°59'3 6.4
2018-Jan-18 14:00N 45°50' W 084°55'3 6.0
2018-Jan-18 13:31N 45°50' W 084°51'3 5.0
2018-Jan-18 13:00N 45°49' W 084°47'4 8.3
2018-Jan-18 12:30N 45°49' W 084°41'3 5.1
2018-Jan-18 12:00N 45°50' W 084°38'3 5.6
2018-Jan-18 11:30N 45°51' W 084°34'3 5.2
2018-Jan-18 11:00N 45°51' W 084°30'3 5.0
2018-Jan-18 10:28N 45°51' W 084°26'2 4.6
2018-Jan-18 10:00N 45°50' W 084°24'2 4.9
2018-Jan-18 09:30N 45°48' W 084°21'2 4.9
2018-Jan-18 09:00N 45°46' W 084°19'2 4.9
2018-Jan-18 08:30N 45°44' W 084°18'19 4.6
2018-Jan-18 04:30N 45°33' W 083°56'3 6.0
2018-Jan-18 04:00N 45°31' W 083°52'4 8.6
2018-Jan-18 03:30N 45°30' W 083°47'4 8.5
2018-Jan-18 03:00N 45°28' W 083°41'4 8.5
2018-Jan-18 02:30N 45°26' W 083°36'4 8.4
2018-Jan-18 02:00N 45°24' W 083°31'030.0
2018-Jan-18 02:00N 45°24' W 083°30'2211.0 250 / 221014.210.8
2018-Jan-18 00:00N 45°06' W 083°12'78 7.8 230 / 301016.510.8
2018-Jan-17 14:00N 43°54' W 082°30'24 8.1 230 / 201028.4
2018-Jan-17 11:00N 43°30' W 082°24'54 5.4 260 / 121029.410.8
2018-Jan-17 01:00N 42°36' W 082°30'   180 / 81029.4 2.2
2018-Jan-14 14:00N 42°30' W 081°00'   290 / 81032.810.8
2018-Jan-11 14:00N 42°42' W 082°30'13 0.5 190 / 141015.510.8
2018-Jan-10 13:00N 42°54' W 082°24'   180 / 101021.610.8 -3.8

Dump ship's entire track history